Weather in Nizhnie Torgai

Ukraine / Kherson District     46°46′55″N   34°15′39″E
temp.,
°C
wind,
m/s
gust,
m/s
humid.,
%
clouds,
%
prec.,
mm/h
press.,
hPa
HPBL,
m
15 april, thu
thu1500:00+8ese4793100 0.0 1013201
03:00+7s3590100 0.0 1014112
06:00+9sse3785100 0.1 1013299
09:00+10s5884100 0.2 1014716
12:00+13ssw895431 0.1 10131549
15:00+11sw8970100 0.2 10141139
18:00+10sw8107065 0.2 10141131
21:00+8sw697880 0.2 1015705
16 april, fri
fri1600:00+7ssw6984100 0.0 1015638
03:00+7sw61087100 0.0 1015578
06:00+7sw61185100 0.1 1015640
09:00+10sw697490 0.1 1016811
12:00+11sw6860100 0.6 10171182
15:00+14sw894190 1.5 10162484
18:00+11wsw67555 0.1 10171455
21:00+6wnw510755 0.1 1019436
17 april, sat
sat1700:00+4wsw48795 0.0 1020225
03:00+5w4885100 0.0 1021726
06:00+5wsw3589100 0.0 1021457
09:00+8w457385 0.0 1022828
12:00+12wnw3456100 0.0 10231411
15:00+12wnw2252100 0.1 10221366
18:00+12wsw0153100 0.0 1022721
21:00+10e2260100 0.0 102230
18 april, sun
sun1800:00+7se3379100 0.0 102242
03:00+6e3485100 0.0 102172
06:00+7ene3683100 0.1 1021169
09:00+10ene576387 0.1 1021738
12:00+13ene555153 0.0 10201256
15:00+16e55445 0.0 10191415
18:00+15ese565042 0.0 10191143
21:00+11e41062100 0.0 1019355
19 april, mon
mon1900:00+10e4115791 0.0 1019357
03:00+10e51268100 0.0 1018382
06:00+10ese6158692 0.0 1016475
09:00+12ese81480100 0.0 1016596
12:00+13ese91480100 0.2 1014551
15:00+15se91476100 0.3 1013792
18:00+13e91787100 3.4 1010499
21:00+14ese122285100 3.4 1006660